Location: Sand Canyon
(38.6177°N, 119.2463°W)
Time: 03:20:53
(UTC+00:00)

Cosmos 1464 Rocket - Pass Details

Date: 05 July 2020
Orbit: 951 x 1002 km, 82.9° (Epoch: 08 August)

Event Time Altitude Azimuth Distance (km) Brightness Sun altitude
Rises 12:03:04 0° 183° (S) 3,699 6.6 -6.6°
Reaches altitude 10° 12:05:34 10° 183° (S) 2,758 6.0 -6.3°
Maximum altitude 12:11:55 87° 97° (E) 1,009 4.2 -5.2°
Drops below altitude 10° 12:18:21 10° 8° (N) 2,781 7.0 -4.2°
Sets 12:20:53 0° 8° (N) 3,732 7.7 -3.8°
